This is the latest recevied weather packets stored in our database for station/object F5OZP-13. If no packets are shown the sender has not sent any weather packets the latest 10 day(s).
| Time | Temp. | Humidity | Pressure | Rain* | Wind** | Luminosity | Snow |
|---|---|---|---|---|---|---|---|
| 1777730569 | 17.78° C | 99% | 1017.6 hPa | - | - | 0 W/m² | - |
| 1777730253 | 17.78° C | 99% | 1017.7 hPa | - | - | 0 W/m² | - |
| 1777729945 | 17.78° C | 99% | 1017.9 hPa | - | - | 0 W/m² | - |
| 1777729636 | 17.78° C | 99% | 1018.1 hPa | - | - | 0 W/m² | - |
| 1777729328 | 17.22° C | 99% | 1018.4 hPa | - | - | 0 W/m² | - |
| 1777729020 | 17.78° C | 99% | 1018.4 hPa | - | - | 0 W/m² | - |
| 1777728720 | 18.89° C | 99% | 1018.7 hPa | - | - | 0 W/m² | - |
| 1777728403 | 19.44° C | 99% | 1019 hPa | - | - | 0 W/m² | - |
| 1777728096 | 20° C | 99% | 1018.8 hPa | - | - | 0 W/m² | - |
| 1777727788 | 20° C | 99% | 1018.4 hPa | - | - | 0 W/m² | - |
| 1777727479 | 20.56° C | 99% | 1018 hPa | - | - | 0 W/m² | - |
| 1777727171 | 20.56° C | 99% | 1018 hPa | - | - | 0 W/m² | - |
| 1777726871 | 20.56° C | 99% | 1017.8 hPa | - | - | 0 W/m² | - |
| 1777726554 | 21.11° C | 99% | 1017.6 hPa | - | - | 0 W/m² | - |
| 1777726246 | 21.11° C | 99% | 1017.5 hPa | - | - | 0 W/m² | - |
| 1777725938 | 22.22° C | 99% | 1017.5 hPa | - | - | 0 W/m² | - |
| 1777725630 | 22.78° C | 99% | 1017.6 hPa | - | - | 0 W/m² | - |
| 1777725322 | 22.22° C | 99% | 1017.5 hPa | - | - | 0 W/m² | - |
| 1777725022 | 22.78° C | 99% | 1017.5 hPa | - | - | 0 W/m² | - |
| 1777724706 | 22.78° C | 99% | 1017.4 hPa | - | - | 0 W/m² | - |
| 1777724397 | 21.67° C | 99% | 1017.4 hPa | - | - | 0 W/m² | - |
| 1777724090 | 21.67° C | 99% | 1017.5 hPa | - | - | 0 W/m² | - |
| 1777723781 | 21.67° C | 99% | 1017.5 hPa | - | - | 0 W/m² | - |
| 1777723478 | 22.22° C | 99% | 1017.5 hPa | - | - | 0 W/m² | - |
| 1777723178 | 22.22° C | 99% | 1017.6 hPa | - | - | 0 W/m² | - |
* Rain since midnight (hover to see other rain measurements)
** Current wind speed in m/s (hover to see current wind gust speed)